#timestamp,LO_Frequency,Hit,StdDev 
1622743215.8,286047000.5,N
1622743235.7,286046998.1,N
1622743255.5,286046999.9,N
1622743275.4,286046998.6,N
1622743295.2,286046998.6,N
1622743315.0,286046999.1,N
1622743315.9,286046999.1,N
1622743335.8,286046999.4,N
1622743355.6,286046998.3,N
1622743375.4,286046998.7,N
1622743395.3,286047000.6,N
1622743415.1,286047002.3,N
1622743435.9,286047002.8,N
1622743455.7,286046999.7,N
1622743475.5,286047002.8,N
1622743495.4,286047000.4,N
1622743515.2,286047000.5,N
1622743535.0,286047000.1,N
1622743535.9,286047000.1,N
1622743555.8,286047000.6,N
1622743575.6,286047000.0,N
1622743595.5,286047000.3,N
1622743615.3,286047000.7,N
1622743635.1,286046999.7,N
1622743655.9,286047000.3,N
1622743675.7,286047000.7,N
1622743695.5,286047001.0,N
1622743715.4,286047000.7,N
1622743735.2,286047001.2,N
1622743755.1,286047001.1,N
1622743756.0,286047001.1,N
1622743775.8,286047001.1,N
1622743795.6,286046999.6,N
1622743815.5,286046999.1,N
1622743835.3,286046998.1,N
1622743855.1,286046999.0,N
1622743875.9,286046999.0,N
1622743895.7,286046999.2,N
1622743915.6,286046998.7,N
1622743935.4,286046999.0,N
1622743955.2,286046998.4,N
1622743975.1,286046998.4,N
1622743976.0,286046998.4,N
1622743995.8,286046999.6,N
1622744015.7,286046999.4,N
1622744035.5,286046999.5,N
1622744055.3,286046999.4,N
1622744075.2,286046996.8,Y
1622744095.0,286046999.5,P
1622744095.9,286046999.5,P
1622744115.7,286046997.0,P
1622744135.6,286046997.1,N
1622744155.4,286046997.2,N
1622744175.3,286046998.0,N
1622744195.1,286046996.2,Y
1622744215.8,286046996.8,P
1622744235.7,286046997.0,P
1622744255.5,286046997.9,P
1622744275.4,286046995.5,Y
1622744295.2,286046999.4,P
1622744315.0,286046996.8,P
1622744315.9,286046996.8,N
1622744335.8,286046996.6,Y
1622744355.6,286047002.4,P
1622744375.4,286047002.4,N
1622744395.3,286046999.7,N
1622744415.1,286047000.3,N
1622744435.9,286047000.5,N
1622744455.7,286047000.3,N
1622744475.5,286047002.8,N
1622744495.4,286046999.9,N
1622744515.2,286047000.3,N
1622744535.0,286047000.9,N
1622744535.9,286047000.9,N
1622744555.8,286046998.6,N
1622744575.6,286046998.3,N
1622744595.4,286046998.2,N
1622744615.3,286046999.8,N
1622744635.1,286047000.8,N
1622744655.9,286046998.1,N
1622744675.7,286047001.1,N
1622744695.5,286047000.6,N
1622744715.4,286046998.5,N
1622744735.2,286046999.2,N
1622744755.0,286046998.2,N
1622744755.9,286046998.2,N
1622744775.8,286046999.4,N
1622744795.6,286046997.0,N
1622744815.5,286046996.5,N
1622744835.3,286046999.0,N
1622744855.1,286046998.9,N
1622744875.9,286046997.0,N
1622744895.7,286047000.9,N
1622744915.5,286047001.1,N
1622744935.4,286047000.9,N
1622744955.2,286047001.2,N
1622744975.1,286046999.0,N
1622744976.0,286046999.0,N
1622744995.8,286046999.0,N
1622745015.6,286046999.4,N
1622745035.5,286047001.1,N
1622745055.3,286046999.3,N
1622745075.1,286046997.7,N
1622745095.9,286046998.5,N
1622745115.7,286046998.8,N
1622745135.6,286046996.7,N
1622745155.4,286046999.0,N
1622745175.2,286046998.4,N
1622745195.1,286046998.8,N
1622745196.0,286046998.8,N
1622745215.8,286046999.4,N
1622745235.6,286046998.9,N
1622745255.5,286047001.2,N
1622745275.3,286047000.8,N
1622745295.2,286046999.9,N
1622745315.9,286047001.1,N
1622745335.7,286047000.9,N
1622745355.6,286046998.8,N
1622745375.4,286046999.2,N
1622745395.2,286046999.4,N
1622745415.1,286046998.7,N
1622745416.0,286046998.7,N
1622745435.8,286046998.8,N
1622745455.7,286046998.3,N
1622745475.5,286046999.4,N
1622745495.3,286047000.8,N
1622745515.2,286047001.0,N
1622745535.0,286047000.4,N
1622745535.9,286047000.4,N
1622745555.7,286046998.1,N
1622745575.6,286047000.4,N
1622745595.4,286047001.0,N
1622745615.3,286047000.6,N
1622745635.1,286047000.0,N
1622745636.0,286047000.0,N
1622745655.8,286046999.8,N
1622745675.7,286047002.1,N
1622745695.5,286047002.3,N
1622745715.4,286047002.8,N
1622745735.2,286047002.5,N
1622745755.0,286047002.4,N
1622745755.9,286047002.4,N
1622745775.8,286046999.7,N
1622745795.6,286046999.8,N
1622745815.4,286047002.0,N
1622745835.3,286047001.7,N
1622745855.1,286047003.6,N
1622745875.9,286047004.4,N
1622745895.7,286047001.8,N
1622745915.5,286047001.9,N
1622745935.4,286047003.7,N
1622745955.2,286047002.6,N
1622745975.0,286047001.9,N
1622745976.0,286047001.9,N
1622745995.8,286047002.3,N
1622746015.6,286047001.8,N
1622746035.5,286047015.2,Y
1622746055.3,286047018.6,P
1622746075.1,286047017.1,N
1622746095.9,286047014.3,N
1622746115.7,286047013.4,N
1622746135.6,286047014.0,N
1622746155.4,286047012.1,N
1622746175.2,286047011.9,N
1622746195.1,286047009.9,N
1622746196.0,286047009.9,N
1622746215.8,286047010.5,N
1622746235.6,286047007.9,N
1622746255.5,286047009.9,N
1622746275.3,286047009.9,N
1622746295.2,286047010.1,N
1622746315.9,286047008.3,N
1622746335.7,286047009.0,N
1622746355.6,286047009.1,N
1622746375.4,286047006.3,N
1622746395.2,286047009.2,N
1622746415.1,286047006.5,N
1622746416.0,286047006.5,N
1622746435.8,286047006.2,N
1622746455.7,286047004.8,N
1622746475.5,286047007.6,N
1622746495.3,286047007.3,N
1622746515.2,286047007.2,N
1622746535.9,286047005.3,N
1622746555.7,286047005.7,N
1622746575.6,286047003.1,N
1622746595.4,286047004.8,N
1622746615.3,286047005.2,N
1622746635.1,286047005.8,N
1622746636.0,286047005.8,N
1622746655.8,286047002.9,N
1622746675.7,286047004.2,N
1622746695.5,286047006.0,N
1622746715.3,286047005.8,N
1622746735.2,286047003.4,N
1622746755.0,286047003.4,N
1622746755.9,286047003.4,N
1622746775.8,286047004.2,N
1622746795.6,286047003.1,N
